Weather History for KBEH - February, 2013

Change the Weather History Date:

Monday, February 11, 2013

  Actual Average Record
Temperature  
Mean Temperature 38 °F -  
Max Temperature 46 °F 33 °F 71 °F (1999)
Min Temperature 30 °F 17 °F -4 °F (2014)
Degree Days  
Heating Degree Days 27    
Moisture  
Dew Point 28 °F    
Average Humidity 72    
Maximum Humidity 87    
Minimum Humidity 64    
Precipitation  
Precipitation 0.00 in - - ()
Sea Level Pressure  
Sea Level Pressure 29.72 in    
Wind  
Wind Speed 20 mph (WSW)    
Max Wind Speed 30 mph    
Max Gust Speed 45 mph    
Visibility 9 miles    
Events Snow    
Averages and records for this station are not official NWS values.
T = Trace of Precipitation, MM = Missing Value Source: NWS Daily Summary

Daily Weather History Graph

Daily Weather History Graph

Search for Another Location

Airport or City:

Trip Planner

Search our weather history database for the weather conditions in past years. The results will help you decide how hot, cold, wet, or windy it might be!

Date:

Astronomy

Feb. 11, 2013 Rise Set
Actual Time 7:46 AM EST 6:13 PM EST
Civil Twilight 7:17 AM EST 6:42 PM EST
Nautical Twilight 6:44 AM EST 7:15 PM EST
Astronomical Twilight 6:12 AM EST 7:48 PM EST
Moon 8:08 AM EST (2/11) 8:13 PM EST (2/11)
Length of Visible Light 11h 24m
Length of Day
10h 26m
Waxing Crescent, 3% of the Moon is Illuminated
Feb 11
Waxing Crescent
Feb 17
First Quarter
Feb 25
Full
Mar 4
Last Quarter
Mar 11
New

Hourly Weather History & Observations

Time (EST) Temp. Windchill Dew Point Humidity Pressure Visibility Wind Dir Wind Speed Gust Speed Precip Events Conditions
12:01 AM 46.4 °F 41.1 °F 42.8 °F 87% 29.55 in 10.0 mi South 11.5 mph - N/A   Mostly Cloudy
12:38 AM 46.4 °F 41.9 °F 42.8 °F 87% 29.55 in 10.0 mi SSW 9.2 mph - N/A   Overcast
12:53 AM 46.9 °F - 43.0 °F 86% 29.56 in 10.0 mi SSW 9.2 mph - N/A   Overcast
1:53 AM 46.9 °F - 37.9 °F 71% 29.55 in 10.0 mi SW 19.6 mph 31.1 mph N/A   Partly Cloudy
2:53 AM 44.1 °F 36.5 °F 34.0 °F 68% 29.55 in 10.0 mi SW 17.3 mph 25.3 mph N/A   Mostly Cloudy
3:53 AM 43.0 °F 33.8 °F 32.0 °F 65% 29.56 in 10.0 mi SW 23.0 mph 35.7 mph N/A   Overcast
4:53 AM 39.0 °F 29.0 °F 30.9 °F 73% 29.57 in 10.0 mi WSW 20.7 mph 33.4 mph N/A   Overcast
5:53 AM 37.9 °F 27.1 °F 30.0 °F 73% 29.60 in 10.0 mi WSW 23.0 mph 38.0 mph N/A   Overcast
6:32 AM 37.4 °F 26.6 °F 28.4 °F 70% 29.59 in 10.0 mi WSW 21.9 mph 33.4 mph N/A   Overcast
6:53 AM 36.0 °F 23.2 °F 28.0 °F 73% 29.62 in 9.0 mi WSW 28.8 mph 43.7 mph N/A   Overcast
7:53 AM 35.1 °F 22.0 °F 25.0 °F 67% 29.65 in 10.0 mi WSW 28.8 mph 41.4 mph 0.00 in   Overcast
8:53 AM 35.1 °F 21.8 °F 24.1 °F 64% 29.67 in 10.0 mi WSW 29.9 mph 44.9 mph N/A   Overcast
9:53 AM 35.1 °F 22.5 °F 25.0 °F 67% 29.67 in 10.0 mi WSW 26.5 mph 39.1 mph N/A   Overcast
10:42 AM 35.6 °F 23.0 °F 24.8 °F 65% 29.66 in 10.0 mi WSW 27.6 mph 41.4 mph N/A   Overcast
10:53 AM 35.1 °F 22.7 °F 26.1 °F 70% 29.68 in 10.0 mi WSW 25.3 mph 35.7 mph N/A   Overcast
11:50 AM 33.8 °F 21.3 °F 26.6 °F 75% 29.69 in 1.8 mi WSW 24.2 mph 36.8 mph 0.00 in Snow Light Snow
11:51 AM 34.0 °F 20.8 °F 27.0 °F 75% 29.71 in 1.5 mi WSW 27.6 mph 36.8 mph 0.00 in Snow Light Snow
12:14 PM 33.8 °F 21.0 °F 26.6 °F 75% 29.70 in 3.0 mi WSW 25.3 mph 38.0 mph 0.00 in Snow Light Snow
12:53 PM 34.0 °F 20.5 °F 26.1 °F 73% 29.72 in 6.0 mi WSW 28.8 mph 42.6 mph 0.00 in   Haze
1:53 PM 34.0 °F 21.0 °F 26.1 °F 73% 29.75 in 10.0 mi WSW 26.5 mph 40.3 mph N/A   Overcast
2:53 PM 34.0 °F 20.5 °F 26.1 °F 73% 29.78 in 10.0 mi WSW 28.8 mph 39.1 mph N/A   Overcast
3:53 PM 34.0 °F 21.0 °F 25.0 °F 70% 29.81 in 10.0 mi WSW 26.5 mph 39.1 mph N/A   Overcast
4:53 PM 33.1 °F 19.3 °F 24.1 °F 70% 29.84 in 10.0 mi West 28.8 mph 41.4 mph N/A   Overcast
5:53 PM 32.0 °F 18.1 °F 23.0 °F 69% 29.86 in 10.0 mi West 27.6 mph 39.1 mph N/A   Overcast
6:53 PM 32.0 °F 18.1 °F 23.0 °F 69% 29.91 in 10.0 mi West 27.6 mph 39.1 mph N/A   Overcast
7:53 PM 32.0 °F 18.9 °F 21.9 °F 66% 29.93 in 10.0 mi West 24.2 mph 38.0 mph N/A   Overcast
8:53 PM 32.0 °F 19.2 °F 21.9 °F 66% 29.94 in 10.0 mi West 23.0 mph 33.4 mph N/A   Overcast
9:53 PM 30.9 °F 18.7 °F 23.0 °F 72% 29.96 in 10.0 mi West 19.6 mph 29.9 mph N/A   Overcast
10:53 PM 30.9 °F 19.1 °F 21.9 °F 69% 29.97 in 10.0 mi West 18.4 mph 31.1 mph N/A   Overcast
11:53 PM 30.9 °F 19.8 °F 21.9 °F 69% 29.99 in 10.0 mi West 16.1 mph 25.3 mph N/A   Overcast